www.pogodaiklimat.ru

Погода и климат >> Архив погоды >> ОАЭ >> Фуджейра


ПОГОДА в Фуджейре

  • Прогноз погоды в Фуджейре
  • Монитор погоды в Фуджейре

АРХИВ ПОГОДЫ в Фуджейре

Время (UTC), дата Ветер
(напр.,м/с)
 
Видим.   Явления Облачность Т
(С)
Тd
(С)
f
(%)
Тe
(С)
Тes
(С)
Комфортность P
(гПа)
Po
(гПа)
Тmin
(С)
Tmax
(С)
R
(мм)
R24
(мм)
S
(см)
03 16.09 З 2 7000 м мгла 5/0
[Ci]
+30.3 +25.8 77 +45 +46 опасность
перегрева
1007.7 1002.5
06 16.09 ЮВ 5 6000 м мгла 4/0
[Ci fib]
+33.3 +26.1 66 +49 +56 опасность
перегрева
1008.8 1005.7 +29.7
09 16.09 ЮВ 4 7000 м мгла 6/0
[Ci fib]
+34.4 +26.3 63 +51 +61 опасность
перегрева
1006.9 1003.8
12 16.09 ЮВ 3 7000 м мгла 4/0
[Ci fib]
+34.0 +26.3 64 +50 +55 опасность
перегрева
1004.9 1001.8
15 16.09 В 2 7000 м мгла ясно +31.9 +28.3 81 +53 +53 опасность
перегрева
1004.7 999.6
18 16.09 Ю 2 6000 м мгла ясно +30.9 +28.4 87 +52 +52 опасность
перегрева
1005.3 1000.2 +34.9
21 16.09 СВ 2 6000 м мгла 3/3 600 м
[Sc]
+30.5 +28.7 90 +52 +52 опасность
перегрева
1005.3 1002.1
00 17.09 СВ 1 5000 м мгла 6/6 300 м
[Sc]
+30.5 +28.0 87 +51 +51 опасность
перегрева
1005.0 1001.8 0.1
03 17.09 З 1 6000 м мгла 1/1 750 м
[Sc]
+29.9 +27.5 87 +48 +49 опасность
перегрева
1005.9 1002.7
06 17.09 В 3 6000 м мгла 3/0
[Ci fib]
+35.2 +24.7 55 +48 +58 опасность
перегрева
1007.0 1001.9 +29.3
09 17.09 В 3 10 км 1/0
[Ci fib]
+36.9 +25.5 52 +51 +65 опасность
перегрева
1005.3 1002.2
12 17.09 В 3 10 км 4/0
[Ci]
+37.0 +22.0 42 +45 +50 опасность
перегрева
1003.3 1000.2
15 17.09 ЮЗ 2 8000 м мгла 4/0
[Ci]
+36.2 +17.9 34 +40 +40 очень
душно
1003.1 1000.0
18 17.09 ЮВ 1 7000 м мгла ясно +34.0 +22.5 51 +43 +43 опасность
перегрева
1004.1 999.0 +38.7
21 17.09 Ю 1 6000 м мгла ясно +32.4 +18.6 44 +37 +37 очень
душно
1003.5 998.4
00 18.09 СЗ 2 5000 м мгла ясно +31.7 +28.3 82 +53 +53 опасность
перегрева
1003.9 998.8
03 18.09 ЮЗ 1 6000 м мгла 4/0
[Ci fib]
+31.4 +28.8 86 +54 +55 опасность
перегрева
1005.8 1002.6
06 18.09 В 3 5000 м мгла ясно +35.6 +25.6 56 +50 +61 опасность
перегрева
1007.1 1002.0 +30.8
09 18.09 В 4 7000 м мгла ясно +37.2 +24.4 48 +49 +62 опасность
перегрева
1006.0 1002.9
12 18.09 В 2 8000 м мгла ясно +37.6 +19.6 35 +43 +48 опасность
перегрева
1004.8 999.7
15 18.09 Ю 2 7000 м мгла ясно +33.2 +26.4 68 +50 +50 опасность
перегрева
1005.6 1000.5
18 18.09 Ю 2 5000 м мгла ясно +31.5 +28.1 82 +52 +52 опасность
перегрева
1007.1 1003.9 +38.2
21 18.09 В 1 4000 м мгла ясно +30.6 +28.2 87 +51 +51 опасность
перегрева
1006.3 1001.2
00 19.09 ЮЗ 1 5000 м мгла 1/1 450 м
[Sc]
+30.1 +26.7 82 +47 +47 опасность
перегрева
1006.9 1001.7
03 19.09 З 1 7000 м мгла 3/3 600 м
[Sc]
+30.5 +26.3 78 +46 +47 опасность
перегрева
1008.9 1003.7
06 19.09 В 4 6000 м мгла ясно +33.5 +25.5 63 +48 +57 опасность
перегрева
1009.4 1004.3 +29.8
09 19.09 В 5 10 км ясно +34.9 +25.1 57 +49 +58 опасность
перегрева
1007.7 1004.6
12 19.09 ЮВ 5 8000 м мгла ясно +33.5 +26.3 66 +50 +53 опасность
перегрева
1006.5 1003.4
15 19.09 ЮВ 3 7000 м мгла ясно +31.7 +25.6 70 +46 +46 опасность
перегрева
1007.1 1002.0
18 19.09 Ю 2 6000 м мгла ясно +30.6 +24.0 68 +42 +42 опасность
перегрева
1007.2 1002.0 +36.0
21 19.09 В 2 6000 м мгла ясно +30.2 +24.9 73 +43 +43 опасность
перегрева
1006.4 1003.2
00 20.09 З 2 5000 м мгла ясно +29.1 +22.6 68 +38 +38 очень
душно
1005.8 1000.5
03 20.09 З 2 6000 м мгла ясно +29.6 +22.3 65 +39 +39 очень
душно
1007.8 1004.6
06 20.09 ЮВ 4 7000 м мгла ясно +33.3 +25.6 64 +48 +57 опасность
перегрева
1008.3 1003.2 +28.4
09 20.09 В 4 7000 м мгла ясно +34.0 +25.8 62 +49 +60 опасность
перегрева
1006.1 1003.0
12 20.09 СВ 3 7000 м мгла ясно +33.7 +25.6 63 +49 +53 опасность
перегрева
1004.6 1001.5
15 20.09 ЮВ 2 7000 м мгла ясно +32.1 +25.5 68 +47 +47 опасность
перегрева
1004.7 1001.6
18 20.09 Ю 2 7000 м мгла ясно +31.5 +24.6 67 +44 +44 опасность
перегрева
1005.8 1000.7 +34.7
21 20.09 ЮЗ 1 7000 м мгла ясно +30.7 +24.1 68 +43 +43 опасность
перегрева
1004.0 1000.8
00 21.09 СВ 1 7000 м мгла ясно +30.7 +25.3 73 +45 +45 опасность
перегрева
1004.2 1001.0
03 21.09 СЗ 3 7000 м мгла ясно +30.4 +25.3 74 +44 +45 опасность
перегрева
1005.7 1002.5
06 21.09 В 3 7000 м мгла ясно +35.1 +22.1 47 +44 +55 опасность
перегрева
1006.2 1001.1 +29.8
09 21.09 В 5 7000 м мгла ясно +35.2 +23.7 51 +46 +56 опасность
перегрева
1004.2 1001.1
12 21.09 В 3 7000 м мгла ясно +34.4 +25.0 58 +48 +52 опасность
перегрева
1002.8 997.7
15 21.09 ЮВ 2 6000 м мгла ясно +32.1 +26.3 72 +49 +49 опасность
перегрева
1003.3 1000.2
18 21.09 Ю 2 7000 м мгла ясно +31.8 +26.1 72 +48 +48 опасность
перегрева
1004.4 1001.3 +35.7
21 21.09 ЮЗ 1 7000 м мгла ясно +31.4 +25.7 72 +46 +46 опасность
перегрева
1004.4 999.3
00 22.09 Ю 1 7000 м мгла ясно +30.5 +26.0 77 +46 +46 опасность
перегрева
1004.3 999.2
03 22.09 ЮЗ 1 7000 м мгла ясно +30.3 +26.6 81 +47 +48 опасность
перегрева
1005.8 1002.6
06 22.09 В 2 7000 м мгла ясно +33.9 +24.7 59 +47 +59 опасность
перегрева
1006.9 1003.8 +29.9
09 22.09 В 4 10 км ясно +34.3 +24.4 56 +47 +58 опасность
перегрева
1005.2 1000.1
12 22.09 В 3 7000 м мгла ясно +33.9 +25.3 61 +48 +53 опасность
перегрева
1004.2 999.1
15 22.09 ЮВ 3 7000 м мгла ясно +32.4 +25.5 67 +47 +47 опасность
перегрева
1004.8 999.7
18 22.09 СЗ 1 6000 м мгла ясно +31.9 +25.8 70 +47 +47 опасность
перегрева
1005.9 1000.8 +35.2
21 22.09 ЮВ 1 6000 м мгла ясно +31.1 +26.4 76 +47 +47 опасность
перегрева
1005.6 1000.5
00 23.09 Ю 1 5000 м мгла ясно +30.1 +25.0 74 +43 +43 опасность
перегрева
1005.3 1000.1

 

Местоположение метеостанции Фуджейра (ОАЭ): широта 25.10 долгота 56.33 высота над уровнем моря 28 м.

В архиве по умолчанию представлена погода в Фуджейре за последнюю неделю. Архивные данные за месяц целиком и за предыдущие месяцы, начиная с января 2011 года, Вы можете получить, выбрав интересующий диапазон дат из раскрывающегося списка и нажав кнопку "Ввод!".


*Определитесь, кто Вы:
робот инопланетянин человек

Внимание! Время в таблицах - всемирное. Для получения местного времени необходимо прибавить поправку, которая равна 4 ч.

Смотрите также архив погоды в соседних городах и на ближайших метеорологических станциях:

Погода в Дибе (Оман) (58 км)
Погода в Рай-эль-Хайма аэропорту (ОАЭ) (70 км)
Погода в Сухаре (Оман) (76 км)
Погода в Шардже (ОАЭ) (85 км)
Погода в Дубае (ОАЭ) (102 км)
Погода в Эль-Бурайми (Оман) (112 км)
Погода в Эль-Айне (ОАЭ) (118 км)
Погода в Эль-Хасаб аэропорту (Оман) (119 км)
Погода в Аль-Мактум аэропорту (ОАЭ) (120 км)
Погода в Эль-Хасабе (Оман) (124 км)

Пояснения к столбцам:

Ветер - указаны скорость ветра в м/с - средняя за 10 мин, порывы в срок и между сроками (в фигурных скобках) и направление, откуда дует ветер: С - северный, СВ - северо-восточный, В - восточный, ЮВ - юго-восточный, Ю - южный, ЮЗ - юго-западный, З - западный, СЗ - северо-западный.
Видимость - горизонтальная дальность видимости в метрах или километрах. При видимости от 1 до 10 км при отсутствии осадков обычно наблюдается дымка, при ухудшении видимости до 1 км и менее - туман. В сухую погоду видимость может ухудшаться дымом, пылью или мглою.
Явления - указаны атмосферные явления, наблюдавшиеся в срок или в последний час перед сроком; фигурными скобками обозначены явления, наблюдавшиеся между сроками (за 1-3 часа до срока); квадратными скобками обозначены град или гололедные отложения с указанием их диаметра в мм.
Облачность - указаны через наклонную черту общая и нижняя облачность в баллах и высота нижней границы облаков в метрах; квадратными скобками обозначены формы облаков: Ci - перистые, Cs - перисто-слоистые, Cc - перисто-кучевые, Ac - высококучевые, As - высокослоистые, Sc - слоисто-кучевые, Ns - слоисто-дождевые, Cu - кучевые, Cb - кучево-дождевые. Подробнее классификацию облаков см. в Атласе облаков (PDF).
T - Температура воздуха - температура, измеренная на высоте 2 м над землей.
Td - Температура точки росы - температура, при понижении до которой содержащийся в воздухе водяной пар достигнет насыщения.
f - Относительная влажность воздуха - влажноcть воздуха, измеренная на высоте 2 м над землей.
Te - Эффективная температура - температура, которую ощущает одетый по сезону человек в тени. Характеристика душности погоды. При расчете учитывается влияние влажности воздуха и скорости ветра на теплоощущения человека.
Tes - Эффективная температура на солнце - температура, которую ощущает человек, с поправкой на солнечный нагрев. Характеристика знойности погоды. Зависит от высоты солнца над горизонтом, облачности и скорости ветра. Ночью, в пасмурную погоду, а также при ветре 12 м/с и более поправка равна нулю.
P - Атмосферное давление - приведенное к уровню моря атмосферное давление.
Po - Атмосферное давление - измеренное на уровне метеостанции атмосферное давление.
Tmin - Минимальная температура - минимум температуры воздуха на высоте 2 м над землей.
Tmax - Максимальная температура - максимум температуры воздуха на высоте 2 м над землей.
R - Количество осадков - Количество выпавших осадков за период времени, мм. При наведении курсора мыши на число - период времени, за который выпало указанное количество осадков.
R24 - Количество осадков - Количество выпавших осадков за 24 часа, мм.
S - Снежный покров - Высота снежного покрова, см. При наведении курсора мыши на число - состояние снежного покрова и степень покрытия местности в баллах.